Simultaneous Nadir Overpasses (SNOs) Predictions

Prediction of SNOs between AQUA and NOAA-19 Satellite Orbit:

Table of predicted SNOs for the next 14.0 days since TLE Epoch: 7/30/2022
Index Date (AQUA) Time (AQUA) Lat,Lon (AQUA) SZA (AQUA ) Date (NOAA-19) Time (NOAA-19) Lat,Lon (NOAA-19) SZA (NOAA-19 ) Distance(km) Time Diff (sec)
1 07/31/2022 20:25:28 77.42,-141.73 59.84 07/31/2022 20:24:47 77.42,-141.89 59.87 3.83 41
2 07/31/2022 21:14:55 -77.49, 25.62 120.06 07/31/2022 21:15:49 -77.48, 25.69 120.09 1.97 54
3 08/03/2022 01:58:41 -77.43, -45.07 119.58 08/03/2022 01:57:44 -77.43, -44.98 119.57 2.28 57
4 08/03/2022 02:48:08 77.45, 122.50 60.45 08/03/2022 02:48:39 77.46, 122.42 60.46 2.31 31
5 08/05/2022 07:31:48 77.17, 52.68 60.69 08/05/2022 07:30:40 77.09, 50.28 60.81 60.21 68
6 08/05/2022 08:21:20 -77.46,-140.85 118.95 08/05/2022 08:21:36 -77.45,-140.80 118.97 2.31 16
7 08/07/2022 13:54:33 77.44, -44.05 61.64 08/07/2022 13:54:25 77.41, -44.09 61.62 3.24 8
8 08/09/2022 19:27:45 -77.42, 52.75 117.76 08/09/2022 19:27:23 -77.43, 52.83 117.75 2.37 22
9 08/09/2022 20:17:12 77.44,-139.72 62.29 08/09/2022 20:18:17 77.44,-139.82 62.27 2.40 65
10 08/12/2022 01:00:58 77.42, 149.46 62.89 08/12/2022 01:00:11 77.40, 149.57 62.88 3.13 47



Historial Predications of SNOs between AQUA and NOAA-19
